Location: ???????
(55.4362°N, 38.1183°E)
Time: 14:38:13
(UTC+00:00)

M-CUBED/EXP-1 PRIME - Pass Details

Date: 08 December 2021
Orbit: 426 x 650 km, 101.7° (Epoch: 28 January)

Event Time Altitude Azimuth Distance (km) Brightness Sun altitude
Rises 13:46:49 0° 126° (SE) 2,859 ? -6.5°
Reaches altitude 10° 13:49:06 10° 116° (ESE) 1,988 ? -6.8°
Maximum altitude 13:52:57 32° 54° (NE) 1,109 ? -7.2°
Drops below altitude 10° 13:56:55 10° 352° (N) 2,066 ? -7.7°
Sets 13:59:20 0° 343° (NNW) 2,989 ? -8.0°
